#timestamp,LO_Frequency,Hit,StdDev 
1702602015.3,286046997.0,P
1702602035.2,286046998.9,N
1702602055.9,286046996.6,Y
1702602075.7,286046999.1,P
1702602095.6,286046996.9,P
1702602115.4,286046999.2,N
1702602135.2,286046997.2,Y
1702602155.1,286046998.9,P
1702602175.8,286046998.1,P
1702602195.7,286047000.9,N
1702602215.5,286047001.1,N
1702602235.4,286046998.7,N
1702602255.2,286046999.3,N
1702602275.0,286046997.1,N
1702602275.9,286046997.1,N
1702602295.8,286046997.3,N
1702602315.6,286046999.5,N
1702602335.5,286047001.2,N
1702602355.3,286047001.1,N
1702602375.1,286046998.1,N
1702602395.9,286047000.9,N
1702602415.7,286047001.1,N
1702602435.5,286047001.2,N
1702602455.4,286046998.3,N
1702602475.2,286046998.9,N
1702602495.1,286046999.1,N
1702602496.0,286046999.1,N
1702602515.8,286046999.4,N
1702602535.6,286046999.5,N
1702602555.5,286047001.2,N
1702602575.3,286046998.7,N
1702602595.1,286046998.5,N
1702602615.9,286047001.1,N
1702602635.7,286046998.5,N
1702602655.6,286047000.7,N
1702602675.4,286046998.7,N
1702602695.2,286046999.3,N
1702602715.1,286046997.0,N
1702602716.0,286046997.0,N
1702602735.8,286046997.2,N
1702602755.6,286046997.5,N
1702602775.5,286046997.7,N
1702602795.3,286046997.5,N
1702602815.2,286046995.1,Y
1702602835.9,286046995.0,P
1702602855.7,286046997.2,N
1702602875.6,286046996.8,N
1702602895.4,286046997.3,N
1702602915.2,286046997.9,N
1702602935.1,286046997.3,N
1702602936.0,286046997.3,N
1702602955.8,286046999.1,N
1702602975.7,286046999.4,N
1702602995.5,286047001.1,N
1702603015.3,286046998.5,N
1702603035.2,286046998.8,N
1702603055.0,286046997.0,N
1702603055.9,286046997.0,N
1702603075.8,286046999.6,N
1702603095.6,286046998.4,N
1702603115.4,286047001.1,N
1702603135.3,286046999.2,N
1702603155.1,286046998.1,N
1702603175.8,286046998.2,N
1702603195.7,286046998.4,N
1702603215.5,286046999.3,N
1702603235.4,286046999.1,N
1702603255.2,286046999.5,N
1702603275.0,286046997.2,N
1702603276.0,286046997.2,N
1702603295.8,286046997.2,N
1702603315.6,286046997.6,N
1702603335.5,286046998.0,N
1702603355.3,286046999.0,N
1702603375.1,286046999.1,N
1702603395.9,286046996.6,Y
1702603415.7,286046999.4,P
1702603435.6,286046999.6,N
1702603455.4,286046996.6,P
1702603475.2,286046996.5,N
1702603495.1,286046997.0,N
1702603496.0,286046997.0,N
1702603515.8,286046999.2,N
1702603535.7,286046997.0,N
1702603555.5,286046997.9,N
1702603575.3,286046997.5,N
1702603595.2,286046997.9,N
1702603615.0,286046997.7,N
1702603615.9,286046997.7,N
1702603635.8,286046997.6,N
1702603655.6,286046997.3,N
1702603675.4,286046996.6,Y
1702603695.3,286047000.5,P
1702603715.1,286047000.8,N
1702603735.9,286047001.1,N
1702603755.7,286047000.9,N
1702603775.5,286047000.0,N
1702603795.4,286046998.4,N
1702603815.2,286047000.4,N
1702603835.0,286046999.4,N
1702603836.0,286046999.4,N
1702603855.8,286046998.9,N
1702603875.6,286046999.6,N
1702603895.5,286047000.5,N
1702603915.3,286047000.8,N
1702603935.1,286046998.2,N
1702603955.9,286046999.3,N
1702603975.7,286046999.1,N
1702603995.5,286046999.0,N
1702604015.4,286046999.0,N
1702604035.2,286046998.4,N
1702604055.1,286046999.0,N
1702604056.0,286046999.0,N
1702604075.8,286046999.6,N
1702604095.6,286046996.5,Y
1702604115.5,286046999.5,P
1702604135.3,286046997.0,P
1702604155.2,286046999.3,N
1702604175.9,286046998.7,N
1702604195.7,286046998.4,N
1702604215.6,286046998.2,N
1702604235.4,286046998.9,N
1702604255.2,286046998.8,N
1702604275.1,286046999.4,N
1702604276.0,286046999.4,N
1702604295.8,286046997.3,Y
1702604315.7,286046998.8,P
1702604335.5,286046999.0,P
1702604355.3,286046997.1,P
1702604375.2,286046999.4,N
1702604395.0,286046998.5,N
1702604395.9,286046998.5,N
1702604415.8,286047001.1,N
1702604435.6,286046998.6,N
1702604455.4,286046998.2,N
1702604475.3,286046998.9,N
1702604495.1,286046996.6,Y
1702604515.8,286047000.3,P
1702604535.7,286047002.7,P
1702604555.5,286047002.8,N
1702604575.4,286047002.8,N
1702604595.2,286047001.1,N
1702604615.0,286046998.2,N
1702604615.9,286046998.2,N
1702604635.8,286047000.8,N
1702604655.6,286047001.1,N
1702604675.4,286046998.2,N
1702604695.3,286046998.9,N
1702604715.1,286047000.3,N
1702604735.9,286047001.0,N
1702604755.7,286047000.6,N
1702604775.5,286047000.6,N
1702604795.4,286047000.7,N
1702604815.2,286046999.1,N
1702604835.0,286046999.4,N
1702604835.9,286046999.4,N
1702604855.8,286046999.4,N
1702604875.6,286046998.4,N
1702604895.5,286047001.0,N
1702604915.3,286046999.9,N
1702604935.1,286047000.3,N
1702604955.9,286047000.4,N
1702604975.7,286046998.1,N
1702604995.5,286047000.3,N
1702605015.4,286046999.7,N
1702605035.2,286047000.8,N
1702605055.1,286047000.6,N
1702605056.0,286047000.6,N
1702605075.8,286047001.0,N
1702605095.6,286047001.2,N
1702605115.5,286047000.5,N
1702605135.3,286047002.8,N
1702605155.1,286047002.4,N
1702605175.9,286047002.7,N
1702605225.7,286047000.8,E
1702605235.7,286046998.1,N
1702605255.5,286046998.5,P
1702605275.3,286046998.4,P
1702605295.2,286046999.3,Y
1702605315.0,286047001.6,P
1702605315.9,286047001.6,N
1702605335.8,286047001.5,N
1702605355.6,286047004.3,Y
1702605375.4,286047001.9,P
1702605395.3,286047004.1,P
1702605415.1,286047005.7,P
1702605435.8,286047003.4,N
1702605455.7,286047003.0,N
1702605475.5,286047003.9,N
1702605495.4,286047003.0,N
1702605515.2,286047003.2,N
1702605535.0,286047005.5,Y
1702605535.9,286047005.5,P
1702605555.8,286047002.1,N
1702605575.6,286047002.8,N
1702605595.4,286047002.7,N
